Regional Weather Roundup
Issued by NWS

Home | Current Version | Previous Version | Graphics & Text | Print | Product List | Glossary On
Versions: 1 2 3 4 5 6 7 8 9 10 11 12 13 14 15 16 17 18 19 20 21 22 23 24 25 26 27 28 29 30 31 32 33 34 35 36 37 38 39 40 41 42 43 44 45 46 47 48 49 50
000
ASUS44 KMEG 302310
RWRTN
TENNESSEE HOURLY STATE WEATHER ROUNDUP
NATIONAL WEATHER SERVICE MEMPHIS TN
600 PM CDT SAT JUL 30 2016

TNZ002-004-019-021-049-052-054-088>092-310000-
WEST TENNESSEE

CITY           SKY/WX    TMP DP  RH WIND       PRES   REMARKS
MEMPHIS INTL   MOSUNNY   90  71  53 CALM      29.97S HX  96
NWS MEMPHIS      N/A     90 N/A N/A MISG        N/A
JACKSON        MOSUNNY   87  73  62 W5        29.96F HX  94
DYERSBURG      SUNNY    N/A N/A N/A MISG        N/A
UNION CITY     SUNNY     88  73  62 SW5       29.94F HX  96
PARIS          SUNNY     86  72  62 CALM      29.97F HX  92
LEXINGTON      SUNNY     86  72  62 S6        29.96F HX  92
$$

TNZ008-025-027-028-033-062-065-066-310000-
NORTH MIDDLE TENNESSEE

CITY           SKY/WX    TMP DP  RH WIND       PRES   REMARKS
NASHVILLE      PTSUNNY   88  68  51 S5        29.96F HX  91
CLARKSVILLE    MOSUNNY   85  71  63 SW7       29.96F HX  90
SMYRNA         MOSUNNY   89  70  53 W8        29.97F HX  94
COOKEVILLE     SUNNY     86  73  66 NW6       29.99S HX  93
CROSSVILLE     MOSUNNY   81  69  67 W7        30.04F
$$

TNZ061-075-076-078-094-096-097-310000-
SOUTH MIDDLE TENNESSEE

CITY           SKY/WX    TMP DP  RH WIND       PRES   REMARKS
FAYETTEVILLE   SUNNY     81  73  78 SW8       30.00S
TULLAHOMA      SUNNY     84  70  61 W7        30.01S
WINCHESTER     SUNNY     82  73  74 W6        30.00R
MCMINNVILLE    SUNNY     84  73  70 W7        29.99F HX  91
COLUMBIA       PTSUNNY   88  73  62 W7        29.96S HX  96
SHELBYVILLE    PTSUNNY   88  73  62 SW3       29.99S HX  96
$$

TNZ017-018-042-046-047-310000-
NORTHEAST TENNESSEE

CITY           SKY/WX    TMP DP  RH WIND       PRES   REMARKS
TRI CITIES     MOSUNNY   86  67  52 W7        30.00F
ELIZABETHTON   SUNNY     84  66  54 W5        30.00F
$$

TNZ012-013-036-069-073-074-310000-
CENTRAL EAST TENNESSEE

CITY           SKY/WX    TMP DP  RH WIND       PRES   REMARKS
KNOXVILLE      PTSUNNY   87  68  52 W8        29.96F HX  90
OAK RIDGE      MOSUNNY   88  69  53 MISG      29.98F HX  92
GATLINBURG     SUNNY     90  64  43 W8        29.96F HX  91
MORRISTOWN     PTSUNNY   86  70  58 NW6       29.98S HX  90
$$

TNZ083-085-099-310000-
SOUTHEAST TENNESSEE

CITY           SKY/WX    TMP DP  RH WIND       PRES   REMARKS
CHATTANOOGA    CLOUDY    85  70  60 W8        29.96F
$$

SKY/WX REPORTED AS FAIR MEANS FEW OR NO CLOUDS BELOW
12 THOUSAND FEET.




USA.gov is the U.S. government's official web portal to all federal, state and local government web resources and services.